sat.trackr.live / text

‹ back to catalog

CENTAURI-8

NORAD 62714 · 2025-009DK

PAYLOAD ACTIVE UNKNOWN

§ Identity

Operator
Country
AUS
Launch date
2025-01-14
Launch site
AFWTR
Launch vehicle
Mass (kg)
RCS (m²)

External: N2YO · Heavens-Above · Gunter

§ Orbital elements

Epoch: 2026-09-22T17:51:29.026944Z

Period
96.11 min
Inclination
97.6982°
Eccentricity
0.0001971
Mean motion
14.98294693 rev/d
Perigee alt
570.8 km
Apogee alt
573.5 km
Semi-major
6,950.3 km
B*
1.8552e-4
RAAN
344.5641°
Arg perigee
161.2029°
Mean anomaly
198.9267°
Rev number
9,208

§ Raw data

CENTAURI-81 62714U 25009DK  26265.74408596  .00002149  00000+0  18552-3 0  99992 62714  97.6982 344.5641 0001971 161.2029 198.9267 14.98294693 92085

JSON: /api/v1/satellites/62714 · /tle

For live sub-satellite position, see the globe view (requires WebGL).

§ Visibility from observer

Set your observer location to see the next 7 days of passes ≥ 10°. The values pass through the URL so the page stays shareable.

No JS? Fill the form by hand. The geolocation button needs JavaScript.

§ Radio — SatNOGS DB

ModeDescriptionDownlinkUplink
FSK Mode U - FSK9k6 - Transmitter 400.220 MHz
BPSK S-band telemetry 2.275 GHz

2 transmitters · refreshed weekly from db.satnogs.org